TimePDT,TemperatureF,Dew PointF,Humidity,Sea Level PressureIn,VisibilityMPH,Wind Direction,Wind SpeedMPH,Gust SpeedMPH,PrecipitationIn,Events,Conditions,WindDirDegrees,DateUTC
12:53 AM,64.9,46.0,50,30.11,10.0,NNW,9.2,-,N/A,,Clear,340,2014-03-29 07:53:00
1:53 AM,64.9,46.9,52,30.11,10.0,NW,5.8,-,N/A,,Clear,320,2014-03-29 08:53:00
2:53 AM,63.0,37.9,40,30.09,10.0,WNW,4.6,-,N/A,,Clear,300,2014-03-29 09:53:00
3:53 AM,64.9,44.1,47,30.08,10.0,NW,6.9,-,N/A,,Clear,310,2014-03-29 10:53:00
4:53 AM,61.0,37.9,42,30.06,10.0,NNW,8.1,-,N/A,,Clear,340,2014-03-29 11:53:00
5:53 AM,62.1,39.9,44,30.06,10.0,North,6.9,-,N/A,,Clear,350,2014-03-29 12:53:00
6:53 AM,60.1,43.0,53,30.07,10.0,NNW,9.2,-,N/A,,Clear,330,2014-03-29 13:53:00
7:53 AM,64.9,43.0,45,30.08,10.0,NW,4.6,-,N/A,,Clear,320,2014-03-29 14:53:00
8:53 AM,71.1,39.0,31,30.07,10.0,NNW,3.5,-,N/A,,Scattered Clouds,330,2014-03-29 15:53:00
9:53 AM,73.9,39.0,28,30.07,10.0,Calm,Calm,-,N/A,,Clear,0,2014-03-29 16:53:00
10:53 AM,78.1,37.9,24,30.05,10.0,SSE,5.8,-,N/A,,Clear,160,2014-03-29 17:53:00
11:53 AM,81.0,37.0,21,30.04,10.0,ESE,9.2,-,N/A,,Clear,110,2014-03-29 18:53:00
12:53 PM,81.0,36.0,20,30.01,10.0,SE,8.1,-,N/A,,Clear,130,2014-03-29 19:53:00
1:53 PM,82.9,34.0,17,29.98,10.0,East,10.4,-,N/A,,Clear,100,2014-03-29 20:53:00
2:53 PM,84.0,35.1,17,29.95,10.0,SE,6.9,-,N/A,,Clear,130,2014-03-29 21:53:00
3:53 PM,84.9,35.1,17,29.91,10.0,East,9.2,-,N/A,,Scattered Clouds,90,2014-03-29 22:53:00
4:53 PM,82.9,33.1,17,29.90,10.0,SE,8.1,-,N/A,,Clear,130,2014-03-29 23:53:00
5:53 PM,82.9,37.9,20,29.89,10.0,East,6.9,-,N/A,,Scattered Clouds,100,2014-03-30 00:53:00
6:53 PM,81.0,39.0,22,29.89,10.0,ESE,5.8,-,N/A,,Scattered Clouds,110,2014-03-30 01:53:00
7:53 PM,78.1,36.0,22,29.90,10.0,South,4.6,-,N/A,,Clear,170,2014-03-30 02:53:00
8:53 PM,75.0,36.0,24,29.90,10.0,SE,6.9,-,N/A,,Clear,130,2014-03-30 03:53:00
9:53 PM,75.9,35.1,23,29.90,10.0,Calm,Calm,-,N/A,,Clear,0,2014-03-30 04:53:00
10:53 PM,75.0,34.0,22,29.89,10.0,NW,4.6,-,N/A,,Clear,320,2014-03-30 05:53:00
11:53 PM,70.0,37.9,31,29.87,10.0,SSE,4.6,-,N/A,,Clear,160,2014-03-30 06:53:00